When you browse on this site, cookies collect data to enhance your experience and personalize the content and advertising you see.
Visit our Privacy Policy to learn more. By continuing to use the site, you agree to this use of cookies and data.
  • In Hungary
  • List of Countries
  • For 7 days
  • Water Temperature
  • Satellite Maps
  • Weather Map
  • News
  • Weather Widgets
  • user-avatar
    Login

    Hourly Weather Kutaisi

    Today, 22 January, Tuesday

    Time Temperature Precipitation Wind Pressure Humidity
    00:00 +4°C° 0 mm 2 mps 751 mmHg 54%
    01:00 +4°C° 0 mm 2 mps 751 mmHg 53%
    02:00 +4°C° 0 mm 2 mps 750 mmHg 53%
    03:00 +5°C° 0 mm 2 mps 750 mmHg 49%
    04:00 +5°C° 0 mm 2 mps 750 mmHg 50%
    05:00 +5°C° 0 mm 2 mps 750 mmHg 52%
    06:00 +6°C° 0 mm 1 mps 750 mmHg 54%
    07:00 +6°C° 0 mm 1 mps 750 mmHg 55%
    08:00 +6°C° 0 mm 1 mps 750 mmHg 57%
    09:00 +7°C° 0 mm 1 mps 750 mmHg 58%
    10:00 +8°C° 0.3 mm 1 mps 750 mmHg 59%
    11:00 +8°C° 0.3 mm 1 mps 750 mmHg 60%
    12:00 +8°C° 0.3 mm 1 mps 750 mmHg 61%
    13:00 +8°C° 0.6 mm 1 mps 750 mmHg 65%
    14:00 +8°C° 0.6 mm 1 mps 750 mmHg 69%
    15:00 +8°C° 0 mm 1 mps 749 mmHg 70%
    16:00 +7°C° 0.8 mm 1 mps 750 mmHg 75%
    17:00 +7°C° 0.8 mm 1 mps 750 mmHg 79%
    18:00 +5°C° 0.8 mm 0 mps 751 mmHg 84%
    19:00 +5°C° 0.4 mm 0 mps 751 mmHg 84%
    20:00 +5°C° 0.4 mm 0 mps 751 mmHg 85%
    21:00 +5°C° 0.4 mm 0 mps 752 mmHg 85%
    22:00 +6°C° 0.1 mm 1 mps 752 mmHg 84%
    23:00 +6°C° 0.1 mm 1 mps 752 mmHg 83%

    Tomorrow, 23 January, Wednesday

    Time Temperature Precipitation Wind Pressure Humidity
    00:00 +5°C° 0.1 mm 1 mps 752 mmHg 82%
    01:00 +5°C° 0 mm 1 mps 752 mmHg 79%
    02:00 +4°C° 0 mm 2 mps 751 mmHg 77%
    03:00 +4°C° 0 mm 2 mps 751 mmHg 74%
    04:00 +3°C° 0 mm 2 mps 751 mmHg 71%
    05:00 +3°C° 0 mm 2 mps 751 mmHg 68%
    06:00 +3°C° 0 mm 2 mps 751 mmHg 66%
    07:00 +3°C° 0 mm 3 mps 751 mmHg 63%
    08:00 +3°C° 0 mm 3 mps 751 mmHg 61%
    09:00 +4°C° 0 mm 3 mps 751 mmHg 59%
    10:00 +7°C° 0 mm 3 mps 750 mmHg 56%
    11:00 +8°C° 0 mm 3 mps 750 mmHg 54%
    12:00 +10°C° 0 mm 3 mps 750 mmHg 51%
    13:00 +10°C° 0 mm 3 mps 749 mmHg 51%
    14:00 +11°C° 0 mm 3 mps 749 mmHg 51%
    15:00 +11°C° 0 mm 3 mps 749 mmHg 52%
    16:00 +10°C° 0 mm 3 mps 750 mmHg 55%
    17:00 +8°C° 0 mm 3 mps 750 mmHg 57%
    18:00 +7°C° 0 mm 3 mps 751 mmHg 60%
    19:00 +5°C° 0 mm 3 mps 751 mmHg 60%
    20:00 +5°C° 0 mm 4 mps 751 mmHg 59%
    21:00 +4°C° 0 mm 4 mps 751 mmHg 58%
    22:00 +4°C° 0 mm 4 mps 751 mmHg 58%
    23:00 +4°C° 0 mm 4 mps 751 mmHg 58%

    Day after tomorrow, 24 January, Thursday

    Time Temperature Precipitation Wind Pressure Humidity
    00:00 +4°C° 0 mm 4 mps 751 mmHg 58%
    01:00 +4°C° 0 mm 4 mps 751 mmHg 58%
    02:00 +4°C° 0 mm 4 mps 751 mmHg 58%
    03:00 +3°C° 0 mm 4 mps 751 mmHg 58%
    04:00 +3°C° 0 mm 4 mps 751 mmHg 58%
    05:00 +3°C° 0 mm 4 mps 751 mmHg 58%
    06:00 +3°C° 0 mm 4 mps 750 mmHg 57%
    07:00 +4°C° 0 mm 4 mps 750 mmHg 56%
    08:00 +5°C° 0 mm 4 mps 750 mmHg 54%
    09:00 +5°C° 0 mm 4 mps 750 mmHg 53%
    10:00 +7°C° 0 mm 4 mps 749 mmHg 50%
    11:00 +9°C° 0 mm 5 mps 749 mmHg 48%
    12:00 +10°C° 0 mm 5 mps 748 mmHg 45%
    13:00 +12°C° 0 mm 5 mps 747 mmHg 46%
    14:00 +12°C° 0 mm 4 mps 747 mmHg 46%
    15:00 +12°C° 0 mm 4 mps 746 mmHg 46%
    16:00 +11°C° 0 mm 4 mps 747 mmHg 48%
    17:00 +10°C° 0 mm 4 mps 747 mmHg 51%
    18:00 +8°C° 0 mm 4 mps 747 mmHg 53%
    19:00 +7°C° 0 mm 4 mps 747 mmHg 52%
    20:00 +7°C° 0 mm 4 mps 747 mmHg 51%
    21:00 +6°C° 0 mm 4 mps 747 mmHg 50%
    22:00 +6°C° 0 mm 4 mps 747 mmHg 50%
    23:00 +6°C° 0 mm 4 mps 747 mmHg 50%

    25 January, Friday

    Time Temperature Precipitation Wind Pressure Humidity
    00:00 +6°C° 0 mm 4 mps 747 mmHg 50%
    01:00 +6°C° 0 mm 4 mps 747 mmHg 51%
    02:00 +6°C° 0 mm 4 mps 747 mmHg 52%
    03:00 +5°C° 0 mm 4 mps 747 mmHg 54%
    04:00 +6°C° 0 mm 4 mps 747 mmHg 54%
    05:00 +6°C° 0 mm 4 mps 747 mmHg 54%
    06:00 +6°C° 0 mm 4 mps 747 mmHg 54%
    07:00 +7°C° 0 mm 3 mps 747 mmHg 54%
    08:00 +7°C° 0 mm 3 mps 747 mmHg 54%
    09:00 +8°C° 0 mm 3 mps 747 mmHg 54%
    10:00 +9°C° 0 mm 3 mps 747 mmHg 53%
    11:00 +10°C° 0 mm 2 mps 746 mmHg 51%
    12:00 +13°C° 0 mm 2 mps 746 mmHg 50%
    13:00 +13°C° 0 mm 2 mps 746 mmHg 49%
    14:00 +14°C° 0 mm 2 mps 746 mmHg 49%
    15:00 +14°C° 0 mm 2 mps 746 mmHg 48%
    16:00 +13°C° 0 mm 2 mps 746 mmHg 52%
    17:00 +10°C° 0 mm 2 mps 747 mmHg 56%
    18:00 +9°C° 0 mm 2 mps 747 mmHg 60%
    19:00 +8°C° 0 mm 2 mps 747 mmHg 60%
    20:00 +8°C° 0 mm 3 mps 748 mmHg 60%
    21:00 +7°C° 0 mm 3 mps 748 mmHg 60%
    22:00 +7°C° 0 mm 3 mps 748 mmHg 59%
    23:00 +7°C° 0 mm 3 mps 748 mmHg 58%

    26 January, Saturday

    Time Temperature Precipitation Wind Pressure Humidity
    00:00 +7°C° 0 mm 3 mps 747 mmHg 57%
    01:00 +7°C° 0 mm 3 mps 747 mmHg 57%
    02:00 +7°C° 0 mm 3 mps 747 mmHg 57%
    03:00 +7°C° 0 mm 3 mps 747 mmHg 57%
    04:00 +7°C° 0 mm 3 mps 746 mmHg 57%
    05:00 +7°C° 0 mm 3 mps 746 mmHg 57%
    06:00 +7°C° 0 mm 3 mps 746 mmHg 57%
    07:00 +7°C° 0 mm 3 mps 746 mmHg 55%
    08:00 +8°C° 0 mm 3 mps 746 mmHg 53%
    09:00 +8°C° 0 mm 3 mps 745 mmHg 52%
    10:00 +10°C° 0 mm 4 mps 745 mmHg 48%
    11:00 +12°C° 0 mm 4 mps 745 mmHg 45%
    12:00 +14°C° 0 mm 4 mps 744 mmHg 41%
    13:00 +14°C° 0 mm 4 mps 744 mmHg 41%
    14:00 +14°C° 0 mm 3 mps 744 mmHg 42%
    15:00 +16°C° 0 mm 3 mps 743 mmHg 42%
    16:00 +13°C° 0 mm 3 mps 744 mmHg 45%
    17:00 +12°C° 0 mm 3 mps 744 mmHg 48%
    18:00 +11°C° 0 mm 3 mps 744 mmHg 51%
    19:00 +11°C° 0.1 mm 3 mps 745 mmHg 52%
    20:00 +10°C° 0.1 mm 3 mps 745 mmHg 53%
    21:00 +10°C° 0.1 mm 3 mps 745 mmHg 54%
    22:00 +9°C° 0.1 mm 3 mps 744 mmHg 55%
    23:00 +9°C° 0.1 mm 3 mps 744 mmHg 57%

    27 January, Sunday

    Time Temperature Precipitation Wind Pressure Humidity
    00:00 +9°C° 0.1 mm 3 mps 744 mmHg 59%
    01:00 +9°C° 0.1 mm 3 mps 744 mmHg 61%
    02:00 +9°C° 0.1 mm 3 mps 744 mmHg 62%
    03:00 +9°C° 0.1 mm 3 mps 744 mmHg 64%
    04:00 +8°C° 0.3 mm 3 mps 744 mmHg 66%
    05:00 +8°C° 0.3 mm 3 mps 744 mmHg 67%
    06:00 +8°C° 0.3 mm 3 mps 744 mmHg 69%
    07:00 +8°C° 0.2 mm 3 mps 744 mmHg 68%
    08:00 +9°C° 0.2 mm 3 mps 744 mmHg 68%
    09:00 +9°C° 0.2 mm 3 mps 744 mmHg 68%
    10:00 +10°C° 0.1 mm 3 mps 744 mmHg 64%
    11:00 +11°C° 0.1 mm 3 mps 743 mmHg 60%
    12:00 +13°C° 0.1 mm 3 mps 743 mmHg 57%
    13:00 +13°C° 0 mm 3 mps 743 mmHg 56%
    14:00 +13°C° 0 mm 3 mps 742 mmHg 55%
    15:00 +14°C° 0 mm 3 mps 742 mmHg 55%
    16:00 +12°C° 0 mm 3 mps 743 mmHg 58%
    17:00 +11°C° 0 mm 3 mps 743 mmHg 61%
    18:00 +10°C° 0 mm 3 mps 743 mmHg 65%
    19:00 +10°C° 0 mm 3 mps 744 mmHg 64%
    20:00 +9°C° 0 mm 3 mps 744 mmHg 64%
    21:00 +9°C° 0 mm 3 mps 744 mmHg 63%
    22:00 +9°C° 0 mm 3 mps 744 mmHg 63%
    23:00 +8°C° 0 mm 3 mps 744 mmHg 63%
    Show more